Location: Lake Arresoe
(56.0000°N, 12.5000°E)
Time: 07:44:58
(UTC+02:00)

ISS - Visible Passes

Search period start: 25 July 2021 00:00
Search period end: 04 August 2021 00:00
Orbit: 419 x 421 km, 51.6° (Epoch: 25 July)

Date Brightness Start Highest point End Pass type
(mag) Time Alt. Az. Time Alt. Az. Time Alt. Az.
25 Jul -2.1 23:08:43 10° WSW 23:11:17 20° SSW 23:12:58 14° S visible
26 Jul -2.3 22:21:18 10° WSW 22:24:07 25° SSW 22:26:56 10° SE visible
27 Jul -1.4 23:11:44 10° WSW 23:12:59 12° SW 23:14:15 10° SSW visible
28 Jul -1.6 22:23:47 10° WSW 22:25:53 16° SSW 22:27:58 10° S visible
